Time,TemperatureF,DewpointF,PressureIn,WindDirection,WindDirectionDegrees,WindSpeedMPH,WindSpeedGustMPH,Humidity,HourlyPrecipIn,Conditions,Clouds,dailyrainin,SoftwareType,DateUTC
2013-03-07 00:05:00,27.8,24.0,29.87,NNW,339,4.0,8.0,85,0.00,,,0.00,weatherlink.com 1.10,2013-03-07 07:05:00,
2013-03-07 00:20:00,27.6,24.0,29.88,North,355,4.0,8.0,86,0.00,,,0.00,weatherlink.com 1.10,2013-03-07 07:20:00,
2013-03-07 00:35:00,27.6,24.0,29.88,NW,323,6.0,7.0,87,0.00,,,0.00,weatherlink.com 1.10,2013-03-07 07:35:00,
2013-03-07 00:50:00,27.7,24.0,29.88,WNW,302,1.0,6.0,87,0.00,,,0.00,weatherlink.com 1.10,2013-03-07 07:50:00,
2013-03-07 01:05:00,27.7,24.0,29.89,NW,305,1.0,5.0,87,0.00,,,0.00,weatherlink.com 1.10,2013-03-07 08:05:00,
2013-03-07 01:20:00,27.8,24.0,29.89,NW,323,3.0,5.0,86,0.00,,,0.00,weatherlink.com 1.10,2013-03-07 08:20:00,
2013-03-07 01:35:00,27.6,24.0,29.90,NNW,340,0.0,0.0,86,0.00,,,0.00,weatherlink.com 1.10,2013-03-07 08:35:00,
2013-03-07 01:50:00,27.7,24.0,29.91,North,11,0.0,0.0,86,0.00,,,0.00,weatherlink.com 1.10,2013-03-07 08:50:00,
2013-03-07 02:05:00,27.8,24.0,29.91,NNE,18,0.0,0.0,86,0.00,,,0.00,weatherlink.com 1.10,2013-03-07 09:05:00,
2013-03-07 02:20:00,27.8,24.0,29.91,NNE,16,0.0,0.0,86,0.00,,,0.00,weatherlink.com 1.10,2013-03-07 09:20:00,
2013-03-07 02:35:00,27.5,24.0,29.91,SW,235,0.0,0.0,86,0.00,,,0.00,weatherlink.com 1.10,2013-03-07 09:35:00,
2013-03-07 02:50:00,27.3,24.0,29.91,SSW,202,0.0,0.0,86,0.00,,,0.00,weatherlink.com 1.10,2013-03-07 09:50:00,
2013-03-07 03:05:00,26.9,24.0,29.91,SSW,203,0.0,0.0,87,0.00,,,0.00,weatherlink.com 1.10,2013-03-07 10:05:00,
2013-03-07 03:20:00,26.1,23.0,29.92,SSW,209,0.0,0.0,88,0.00,,,0.00,weatherlink.com 1.10,2013-03-07 10:20:00,
2013-03-07 03:35:00,26.3,24.0,29.92,SW,215,0.0,0.0,89,0.00,,,0.00,weatherlink.com 1.10,2013-03-07 10:35:00,
2013-03-07 03:50:00,26.5,24.0,29.93,SSW,209,0.0,0.0,89,0.00,,,0.00,weatherlink.com 1.10,2013-03-07 10:50:00,
2013-03-07 04:05:00,26.7,24.0,29.94,NE,36,0.0,0.0,90,0.00,,,0.00,weatherlink.com 1.10,2013-03-07 11:05:00,
2013-03-07 04:20:00,26.9,24.0,29.97,NW,311,6.0,8.0,90,0.00,,,0.00,weatherlink.com 1.10,2013-03-07 11:20:00,
2013-03-07 04:35:00,27.8,26.0,29.96,ENE,63,1.0,4.0,91,0.00,,,0.00,weatherlink.com 1.10,2013-03-07 11:35:00,
2013-03-07 04:51:00,28.6,26.0,29.96,SSE,153,3.0,5.0,90,0.00,,,0.00,weatherlink.com 1.10,2013-03-07 11:51:00,
2013-03-07 05:06:00,28.2,25.0,29.96,ESE,121,0.0,3.0,88,0.00,,,0.00,weatherlink.com 1.10,2013-03-07 12:06:00,
2013-03-07 05:21:00,28.6,26.0,29.96,South,177,3.0,10.0,89,0.00,,,0.00,weatherlink.com 1.10,2013-03-07 12:21:00,
2013-03-07 05:36:00,30.1,27.0,29.96,South,169,1.0,7.0,87,0.00,,,0.00,weatherlink.com 1.10,2013-03-07 12:36:00,
2013-03-07 05:51:00,31.3,27.0,29.97,West,262,1.0,6.0,83,0.00,,,0.00,weatherlink.com 1.10,2013-03-07 12:51:00,
2013-03-07 06:06:00,33.0,27.0,29.98,WSW,242,6.0,7.0,78,0.00,,,0.00,weatherlink.com 1.10,2013-03-07 13:06:00,
2013-03-07 06:21:00,34.1,27.0,29.99,WSW,250,4.0,9.0,74,0.00,,,0.00,weatherlink.com 1.10,2013-03-07 13:21:00,
2013-03-07 06:36:00,34.8,26.0,29.99,WSW,250,7.0,8.0,69,0.00,,,0.00,weatherlink.com 1.10,2013-03-07 13:36:00,
2013-03-07 06:51:00,35.2,24.0,30.00,SSE,159,4.0,13.0,65,0.00,,,0.00,weatherlink.com 1.10,2013-03-07 13:51:00,
2013-03-07 07:06:00,35.5,24.0,30.00,South,175,0.0,10.0,63,0.00,,,0.00,weatherlink.com 1.10,2013-03-07 14:06:00,
2013-03-07 07:21:00,35.6,24.0,30.01,SSW,201,0.0,9.0,63,0.00,,,0.00,weatherlink.com 1.10,2013-03-07 14:21:00,
2013-03-07 07:36:00,35.9,24.0,30.01,South,180,0.0,5.0,63,0.00,,,0.00,weatherlink.com 1.10,2013-03-07 14:36:00,
2013-03-07 07:51:00,36.6,25.0,30.02,SSE,165,0.0,5.0,63,0.00,,,0.00,weatherlink.com 1.10,2013-03-07 14:51:00,
2013-03-07 08:06:00,38.8,26.0,30.02,WSW,249,1.0,3.0,60,0.00,,,0.00,weatherlink.com 1.10,2013-03-07 15:06:00,
2013-03-07 08:21:00,39.5,26.0,30.02,SSE,148,5.0,12.0,59,0.00,,,0.00,weatherlink.com 1.10,2013-03-07 15:21:00,
2013-03-07 08:36:00,40.1,24.0,30.03,WSW,249,6.0,9.0,54,0.00,,,0.00,weatherlink.com 1.10,2013-03-07 15:36:00,
2013-03-07 08:51:00,39.8,25.0,30.03,SSW,199,0.0,8.0,56,0.00,,,0.00,weatherlink.com 1.10,2013-03-07 15:51:00,
2013-03-07 09:06:00,39.0,25.0,30.03,SSE,150,3.0,11.0,58,0.00,,,0.00,weatherlink.com 1.10,2013-03-07 16:06:00,
2013-03-07 09:21:00,40.1,24.0,30.03,SE,146,6.0,15.0,53,0.00,,,0.00,weatherlink.com 1.10,2013-03-07 16:21:00,
2013-03-07 09:36:00,40.1,26.0,30.03,SE,135,9.0,18.0,57,0.00,,,0.00,weatherlink.com 1.10,2013-03-07 16:36:00,
2013-03-07 09:51:00,42.5,27.0,30.02,SSE,165,10.0,16.0,54,0.00,,,0.00,weatherlink.com 1.10,2013-03-07 16:51:00,
2013-03-07 10:06:00,43.1,26.0,30.03,SSE,150,6.0,20.0,51,0.00,,,0.00,weatherlink.com 1.10,2013-03-07 17:06:00,
2013-03-07 10:21:00,42.0,25.0,30.03,SE,133,11.0,22.0,52,0.00,,,0.00,weatherlink.com 1.10,2013-03-07 17:21:00,
2013-03-07 10:36:00,41.9,25.0,30.03,SSE,163,9.0,21.0,52,0.00,,,0.00,weatherlink.com 1.10,2013-03-07 17:36:00,
2013-03-07 10:51:00,40.7,25.0,30.04,SSE,153,9.0,17.0,53,0.00,,,0.00,weatherlink.com 1.10,2013-03-07 17:51:00,
2013-03-07 11:06:00,40.9,24.0,30.04,SE,140,9.0,17.0,51,0.00,,,0.00,weatherlink.com 1.10,2013-03-07 18:06:00,
2013-03-07 11:21:00,41.4,24.0,30.04,SE,134,3.0,12.0,51,0.00,,,0.00,weatherlink.com 1.10,2013-03-07 18:21:00,
2013-03-07 11:36:00,41.5,23.0,30.04,SSE,160,5.0,13.0,49,0.00,,,0.00,weatherlink.com 1.10,2013-03-07 18:36:00,
2013-03-07 11:52:00,42.2,23.0,30.04,SSE,151,5.0,11.0,47,0.00,,,0.00,weatherlink.com 1.10,2013-03-07 18:52:00,
2013-03-07 12:06:00,42.7,23.0,30.05,SSE,160,4.0,9.0,45,0.00,,,0.00,weatherlink.com 1.10,2013-03-07 19:06:00,
2013-03-07 12:22:00,42.8,23.0,30.04,SW,234,0.0,9.0,45,0.00,,,0.00,weatherlink.com 1.10,2013-03-07 19:22:00,
2013-03-07 12:37:00,43.3,23.0,30.04,South,181,5.0,11.0,45,0.00,,,0.00,weatherlink.com 1.10,2013-03-07 19:37:00,
2013-03-07 12:52:00,45.5,22.0,30.03,South,173,6.0,11.0,40,0.00,,,0.00,weatherlink.com 1.10,2013-03-07 19:52:00,
2013-03-07 13:07:00,44.0,23.0,30.03,South,178,1.0,13.0,43,0.00,,,0.00,weatherlink.com 1.10,2013-03-07 20:07:00,
2013-03-07 13:22:00,44.7,22.0,30.03,West,267,0.0,10.0,41,0.00,,,0.00,weatherlink.com 1.10,2013-03-07 20:22:00,
2013-03-07 13:37:00,44.8,22.0,30.02,SSW,198,0.0,10.0,41,0.00,,,0.00,weatherlink.com 1.10,2013-03-07 20:37:00,
2013-03-07 13:52:00,44.9,21.0,30.02,WSW,242,0.0,10.0,39,0.00,,,0.00,weatherlink.com 1.10,2013-03-07 20:52:00,
2013-03-07 14:07:00,45.1,22.0,30.02,South,180,6.0,9.0,40,0.00,,,0.00,weatherlink.com 1.10,2013-03-07 21:07:00,
2013-03-07 14:22:00,45.3,23.0,30.01,WSW,244,7.0,10.0,41,0.00,,,0.00,weatherlink.com 1.10,2013-03-07 21:22:00,
2013-03-07 14:37:00,45.4,23.0,30.01,West,261,11.0,12.0,41,0.00,,,0.00,weatherlink.com 1.10,2013-03-07 21:37:00,
2013-03-07 14:52:00,45.4,23.0,30.01,WSW,257,8.0,14.0,41,0.00,,,0.00,weatherlink.com 1.10,2013-03-07 21:52:00,
2013-03-07 15:07:00,46.0,22.0,30.01,WSW,255,8.0,11.0,39,0.00,,,0.00,weatherlink.com 1.10,2013-03-07 22:07:00,
2013-03-07 15:22:00,45.7,22.0,30.01,West,270,4.0,10.0,39,0.00,,,0.00,weatherlink.com 1.10,2013-03-07 22:22:00,
2013-03-07 15:37:00,47.2,21.0,30.01,WSW,249,10.0,10.0,36,0.00,,,0.00,weatherlink.com 1.10,2013-03-07 22:37:00,
2013-03-07 15:52:00,47.5,21.0,30.01,WSW,250,4.0,8.0,35,0.00,,,0.00,weatherlink.com 1.10,2013-03-07 22:52:00,
2013-03-07 16:22:00,47.3,20.0,30.00,WNW,299,8.0,11.0,34,0.00,,,0.00,weatherlink.com 1.10,2013-03-07 23:22:00,
2013-03-07 16:37:00,47.0,19.0,30.00,NW,306,6.0,9.0,33,0.00,,,0.00,weatherlink.com 1.10,2013-03-07 23:37:00,
2013-03-07 16:52:00,45.9,19.0,30.00,WNW,296,7.0,8.0,34,0.00,,,0.00,weatherlink.com 1.10,2013-03-07 23:52:00,
2013-03-07 17:07:00,45.5,18.0,30.01,WNW,288,8.0,10.0,33,0.00,,,0.00,weatherlink.com 1.10,2013-03-08 00:07:00,
2013-03-07 17:22:00,45.6,18.0,30.01,West,280,8.0,10.0,33,0.00,,,0.00,weatherlink.com 1.10,2013-03-08 00:22:00,
2013-03-07 17:37:00,44.9,19.0,30.01,WNW,299,7.0,9.0,35,0.00,,,0.00,weatherlink.com 1.10,2013-03-08 00:37:00,
2013-03-07 17:52:00,44.2,18.0,30.01,WNW,290,7.0,8.0,35,0.00,,,0.00,weatherlink.com 1.10,2013-03-08 00:52:00,
2013-03-07 18:07:00,42.0,17.0,30.01,NW,315,2.0,6.0,37,0.00,,,0.00,weatherlink.com 1.10,2013-03-08 01:07:00,
2013-03-07 18:22:00,40.4,17.0,30.02,NNW,336,1.0,5.0,39,0.00,,,0.00,weatherlink.com 1.10,2013-03-08 01:22:00,
2013-03-07 18:37:00,39.5,17.0,30.03,NW,304,0.0,5.0,41,0.00,,,0.00,weatherlink.com 1.10,2013-03-08 01:37:00,
2013-03-07 18:52:00,38.6,18.0,30.03,North,355,0.0,1.0,43,0.00,,,0.00,weatherlink.com 1.10,2013-03-08 01:52:00,
2013-03-07 19:07:00,38.4,18.0,30.03,NW,321,0.0,0.0,43,0.00,,,0.00,weatherlink.com 1.10,2013-03-08 02:07:00,
2013-03-07 19:22:00,37.9,18.0,30.04,NW,325,0.0,1.0,45,0.00,,,0.00,weatherlink.com 1.10,2013-03-08 02:22:00,
2013-03-07 19:37:00,37.3,18.0,30.04,NW,317,3.0,3.0,46,0.00,,,0.00,weatherlink.com 1.10,2013-03-08 02:37:00,
2013-03-07 19:52:00,35.7,18.0,30.05,NW,316,0.0,0.0,49,0.00,,,0.00,weatherlink.com 1.10,2013-03-08 02:52:00,
2013-03-07 20:07:00,34.6,19.0,30.05,WNW,296,0.0,1.0,53,0.00,,,0.00,weatherlink.com 1.10,2013-03-08 03:07:00,
2013-03-07 20:22:00,33.0,19.0,30.05,WSW,254,0.0,0.0,57,0.00,,,0.00,weatherlink.com 1.10,2013-03-08 03:22:00,
2013-03-07 20:37:00,32.1,19.0,30.05,WSW,246,0.0,2.0,60,0.00,,,0.00,weatherlink.com 1.10,2013-03-08 03:37:00,
2013-03-07 20:52:00,31.3,19.0,30.05,WSW,246,0.0,0.0,61,0.00,,,0.00,weatherlink.com 1.10,2013-03-08 03:52:00,
2013-03-07 21:07:00,30.6,19.0,30.06,SSW,208,0.0,1.0,63,0.00,,,0.00,weatherlink.com 1.10,2013-03-08 04:07:00,
2013-03-07 21:22:00,30.1,19.0,30.06,WSW,244,0.0,0.0,64,0.00,,,0.00,weatherlink.com 1.10,2013-03-08 04:22:00,
2013-03-07 21:37:00,29.2,20.0,30.06,WSW,243,2.0,2.0,68,0.00,,,0.00,weatherlink.com 1.10,2013-03-08 04:37:00,
2013-03-07 21:52:00,28.5,20.0,30.06,NW,322,1.0,3.0,70,0.00,,,0.00,weatherlink.com 1.10,2013-03-08 04:52:00,
2013-03-07 22:07:00,29.1,19.0,30.06,WNW,291,3.0,3.0,67,0.00,,,0.00,weatherlink.com 1.10,2013-03-08 05:07:00,
2013-03-07 22:22:00,28.5,20.0,30.07,West,279,1.0,3.0,70,0.00,,,0.00,weatherlink.com 1.10,2013-03-08 05:22:00,
2013-03-07 22:37:00,28.1,20.0,30.07,West,278,1.0,3.0,71,0.00,,,0.00,weatherlink.com 1.10,2013-03-08 05:37:00,
2013-03-07 22:52:00,28.0,19.0,30.07,WNW,286,2.0,3.0,70,0.00,,,0.00,weatherlink.com 1.10,2013-03-08 05:52:00,
2013-03-07 23:07:00,27.1,20.0,30.07,WNW,286,0.0,0.0,73,0.00,,,0.00,weatherlink.com 1.10,2013-03-08 06:07:00,
2013-03-07 23:22:00,27.8,20.0,30.07,WNW,286,0.0,0.0,71,0.00,,,0.00,weatherlink.com 1.10,2013-03-08 06:22:00,
2013-03-07 23:37:00,27.7,21.0,30.07,WNW,288,0.0,0.0,75,0.00,,,0.00,weatherlink.com 1.10,2013-03-08 06:37:00,
2013-03-07 23:52:00,27.5,20.0,30.07,WNW,298,0.0,0.0,72,0.00,,,0.00,weatherlink.com 1.10,2013-03-08 06:52:00,